Morris, MN

11:23 PM CST on December 14, 2017 (GMT -0600)
Morris Municipal

Weather History for KMOX - June, 2014

Change the Weather History Date:

Monday, June 2, 2014

  Actual Average Record
Temperature  
Mean Temperature 63 °F -  
Max Temperature 71 °F 69 °F 129 °F (2008)
Min Temperature 55 °F 49 °F 41 °F (1999)
Degree Days  
Heating Degree Days 2    
Growing Degree Days 13 (Base 50)    
Moisture  
Dew Point 59 °F    
Average Humidity 84    
Maximum Humidity 100    
Minimum Humidity 68    
Precipitation  
Precipitation 0.01 in - - ()
Sea Level Pressure  
Sea Level Pressure 29.76 in    
Wind  
Wind Speed 9 mph (WNW)    
Max Wind Speed 28 mph    
Max Gust Speed 33 mph    
Visibility 10 miles    
Events Rain    
Averages and records for this station are not official NWS values.
T = Trace of Precipitation, MM = Missing Value Source: NWS Daily Summary

Daily Weather History Graph

Daily Weather History Graph

Search for Another Location

Airport or City:

Trip Planner

Search our weather history database for the weather conditions in past years. The results will help you decide how hot, cold, wet, or windy it might be!

Date:

Astronomy

Jun. 02, 2014 Rise Set
Actual Time 5:37 AM CDT 9:06 PM CDT
Civil Twilight 5:00 AM CDT 9:43 PM CDT
Nautical Twilight 4:11 AM CDT 10:32 PM CDT
Astronomical Twilight 3:08 AM CDT 11:36 PM CDT
Moon 10:14 AM CDT (6/2) No Moon Set
Length of Visible Light 16h 42m
Length of Day
15h 28m
Waxing Crescent, 22% of the Moon is Illuminated
Jun 2
Waxing Crescent
Jun 5
First Quarter
Jun 12
Full
Jun 19
Last Quarter
Jun 27
New

Hourly Weather History & Observations

Time (CDT) Temp. Dew Point Humidity Pressure Visibility Wind Dir Wind Speed Gust Speed Precip Events Conditions
12:10 AM 64.4 °F 64.4 °F 100% 29.73 in 10.0 mi Calm Calm - N/A   Scattered Clouds
12:30 AM 64.4 °F 64.4 °F 100% 29.73 in 7.0 mi Calm Calm - N/A   Drizzle
12:50 AM 64.4 °F 64.4 °F 100% 29.72 in 10.0 mi West 3.5 mph - N/A   Light Drizzle
1:10 AM 64.4 °F 64.4 °F 100% 29.70 in 10.0 mi NW 4.6 mph - 0.01 in   Light Drizzle
1:30 AM 64.4 °F 62.6 °F 94% 29.69 in 10.0 mi Calm Calm - 0.01 in   Scattered Clouds
1:50 AM 64.4 °F 62.6 °F 94% 29.69 in 7.0 mi NW 4.6 mph - 0.01 in   Scattered Clouds
2:10 AM 64.4 °F 62.6 °F 94% 29.69 in 7.0 mi WNW 4.6 mph - N/A   Mostly Cloudy
2:30 AM 64.4 °F 62.6 °F 94% 29.70 in 10.0 mi West 3.5 mph - N/A   Overcast
2:50 AM 64.4 °F 62.6 °F 94% 29.70 in 10.0 mi West 5.8 mph - N/A   Mostly Cloudy
3:10 AM 64.4 °F 62.6 °F 94% 29.70 in 10.0 mi WSW 3.5 mph - N/A   Mostly Cloudy
3:30 AM 64.4 °F 62.6 °F 94% 29.70 in 10.0 mi South 3.5 mph - N/A   Overcast
3:50 AM 64.4 °F 62.6 °F 94% 29.70 in 10.0 mi SSW 4.6 mph - N/A   Mostly Cloudy
4:10 AM 64.4 °F 62.6 °F 94% 29.70 in 10.0 mi SSW 4.6 mph - N/A   Mostly Cloudy
4:30 AM 64.4 °F 62.6 °F 94% 29.69 in 10.0 mi SSW 3.5 mph - N/A   Scattered Clouds
4:50 AM 64.4 °F 62.6 °F 94% 29.69 in 10.0 mi South 4.6 mph - N/A   Scattered Clouds
5:10 AM 64.4 °F 62.6 °F 94% 29.69 in 10.0 mi Calm Calm - N/A Rain Light Rain
5:30 AM 64.4 °F 62.6 °F 94% 29.69 in 10.0 mi Calm Calm - N/A Rain Light Rain
5:50 AM 64.4 °F 62.6 °F 94% 29.68 in 7.0 mi South 3.5 mph - N/A   Scattered Clouds
6:10 AM 62.6 °F 62.6 °F 100% 29.69 in 4.0 mi South 4.6 mph - N/A   Clear
6:30 AM 62.6 °F 62.6 °F 100% 29.69 in 4.0 mi South 4.6 mph - N/A   Clear
6:50 AM 64.4 °F 62.6 °F 94% 29.69 in 4.0 mi SSW 5.8 mph - N/A   Clear
7:10 AM 64.4 °F 64.4 °F 100% 29.68 in 10.0 mi SSW 4.6 mph - N/A   Clear
7:30 AM 66.2 °F 64.4 °F 94% 29.69 in 10.0 mi WSW 6.9 mph - N/A   Clear
7:50 AM 68.0 °F 64.4 °F 88% 29.69 in 10.0 mi West 8.1 mph - N/A   Clear
8:05 AM 69.8 °F 64.4 °F 83% 29.69 in 10.0 mi West 13.8 mph - N/A   Clear
9:33 AM - - N/A% 29.70 in - WNW 19.6 mph - N/A   Unknown
9:36 AM 69.8 °F - N/A% 29.70 in - WNW 18.4 mph - N/A   Unknown
9:50 AM 68.0 °F 62.6 °F 83% 29.70 in 10.0 mi WNW 16.1 mph 23.0 mph N/A   Unknown
10:10 AM 68.0 °F 62.6 °F 83% 29.71 in 10.0 mi West 17.3 mph - N/A   Clear
10:30 AM 68.0 °F 62.6 °F 83% 29.70 in 10.0 mi West 18.4 mph - N/A   Clear
10:50 AM 68.0 °F 60.8 °F 78% 29.70 in 10.0 mi WNW 18.4 mph - N/A   Clear
11:10 AM 68.0 °F 62.6 °F 83% 29.71 in 10.0 mi WNW 16.1 mph 21.9 mph N/A   Clear
12:10 PM 68.0 °F 60.8 °F 78% 29.72 in 10.0 mi West 19.6 mph 24.2 mph N/A   Clear
12:30 PM 69.8 °F 60.8 °F 73% 29.72 in 10.0 mi West 19.6 mph 25.3 mph N/A   Clear
1:10 PM 69.8 °F 60.8 °F 73% 29.72 in 10.0 mi West 23.0 mph 28.8 mph N/A   Clear
1:30 PM 71.6 °F 60.8 °F 69% 29.72 in 10.0 mi West 23.0 mph 28.8 mph N/A   Clear
1:50 PM 69.8 °F 60.8 °F 73% 29.72 in 10.0 mi West 25.3 mph 31.1 mph N/A   Clear
2:10 PM 69.8 °F 60.8 °F 73% 29.73 in 10.0 mi West 27.6 mph 33.4 mph N/A   Scattered Clouds
2:30 PM 68.0 °F 60.8 °F 78% 29.73 in 10.0 mi WNW 23.0 mph 29.9 mph N/A   Scattered Clouds
2:50 PM 69.8 °F 60.8 °F 73% 29.73 in 10.0 mi WNW 24.2 mph 33.4 mph N/A   Clear
3:10 PM 66.2 °F 60.8 °F 83% 29.74 in 10.0 mi WNW 21.9 mph 32.2 mph N/A   Clear
3:30 PM 64.4 °F 59.0 °F 83% 29.76 in 10.0 mi WNW 21.9 mph 27.6 mph N/A   Clear
3:50 PM 62.6 °F 57.2 °F 82% 29.77 in 10.0 mi WNW 23.0 mph 31.1 mph N/A   Scattered Clouds
4:10 PM 62.6 °F 57.2 °F 82% 29.78 in 10.0 mi NW 24.2 mph - N/A   Scattered Clouds
4:30 PM 64.4 °F 57.2 °F 77% 29.78 in 10.0 mi NW 18.4 mph 24.2 mph N/A   Clear
4:50 PM 64.4 °F 57.2 °F 77% 29.78 in 10.0 mi NW 18.4 mph 28.8 mph N/A   Clear
5:10 PM 64.4 °F 55.4 °F 73% 29.79 in 10.0 mi NW 27.6 mph 32.2 mph N/A   Scattered Clouds
5:30 PM 64.4 °F 55.4 °F 73% 29.79 in 10.0 mi NW 19.6 mph - N/A   Mostly Cloudy
5:50 PM 64.4 °F 55.4 °F 73% 29.80 in 10.0 mi NW 20.7 mph - N/A   Mostly Cloudy
6:10 PM 66.2 °F 55.4 °F 68% 29.80 in 10.0 mi NNW 24.2 mph - N/A   Scattered Clouds
6:30 PM 64.4 °F 53.6 °F 68% 29.81 in 10.0 mi NNW 21.9 mph 26.5 mph N/A   Mostly Cloudy
6:50 PM 64.4 °F 53.6 °F 68% 29.81 in 10.0 mi NNW 19.6 mph 27.6 mph N/A   Scattered Clouds
7:10 PM 62.6 °F 53.6 °F 72% 29.82 in 10.0 mi NW 15.0 mph - N/A   Mostly Cloudy
7:30 PM 62.6 °F 51.8 °F 68% 29.83 in 10.0 mi NNW 17.3 mph - N/A   Overcast
7:50 PM 62.6 °F 51.8 °F 68% 29.83 in 10.0 mi NNW 15.0 mph - N/A   Overcast
8:10 PM 62.6 °F 51.8 °F 68% 29.84 in 10.0 mi NW 12.7 mph - N/A   Overcast
8:30 PM 60.8 °F 53.6 °F 77% 29.85 in 10.0 mi NW 10.4 mph - N/A   Overcast
8:50 PM 60.8 °F 53.6 °F 77% 29.86 in 10.0 mi WNW 10.4 mph - N/A   Overcast
9:10 PM 60.8 °F 53.6 °F 77% 29.86 in 10.0 mi WNW 9.2 mph - N/A   Overcast
9:30 PM 60.8 °F 53.6 °F 77% 29.87 in 10.0 mi WNW 8.1 mph - N/A   Overcast
9:50 PM 59.0 °F 53.6 °F 82% 29.88 in 10.0 mi WNW 8.1 mph - N/A   Mostly Cloudy
10:10 PM 57.2 °F 53.6 °F 88% 29.90 in 10.0 mi West 8.1 mph - N/A   Scattered Clouds
10:30 PM 57.2 °F 53.6 °F 88% 29.91 in 10.0 mi WNW 8.1 mph - N/A   Scattered Clouds
10:50 PM 57.2 °F 53.6 °F 88% 29.91 in 10.0 mi WNW 8.1 mph - N/A   Scattered Clouds
11:10 PM 55.4 °F 53.6 °F 94% 29.92 in 10.0 mi WNW 5.8 mph - N/A   Clear
11:30 PM 57.2 °F 53.6 °F 88% 29.92 in 10.0 mi WNW 8.1 mph - N/A   Mostly Cloudy
11:50 PM 57.2 °F 53.6 °F 88% 29.92 in 10.0 mi WNW 6.9 mph - N/A   Scattered Clouds